Regional Weather Roundup
Issued by NWS

Home | Current Version | Previous Version | Graphics & Text | Print | Product List | Glossary On
Versions: 1 2 3 4 5 6 7 8 9 10 11 12 13 14 15 16 17 18 19 20 21 22 23 24 25 26 27 28 29 30 31 32 33 34 35 36 37 38 39 40 41 42 43 44 45 46 47 48 49 50
000
ASUS43 KIND 280209
RWRIN

WEATHER ROUNDUP FOR INDIANA
NATIONAL WEATHER SERVICE INDIANAPOLIS IN
900 PM EST SAT DEC 27 2014

NOTE: "FAIR" INDICATES FEW OR NO CLOUDS BELOW 12,000 FEET WITH NO
SIGNIFICANT WEATHER AND/OR OBSTRUCTIONS TO VISIBILITY.

* - STATION DOES NOT REPORT WEATHER SUCH AS PRECIPITATION OR FOG.

+ - STATION NOT QUALITY CONTROLLED BY THE NATIONAL WEATHER SERVICE.
    USE DATA WITH CAUTION...ESPECIALLY DEWPOINT AND RELATIVE
    HUMIDITY OBSERVATIONS.

INZ001>003-010>013-019-020-280300-
NORTHWEST INDIANA

CITY           SKY/WX    TMP DP  RH WIND       PRES   REMARKS
GARY /AIRPORT/ CLOUDY    36  23  60 W12G23    30.10R
KNOX *+        CLOUDY    34  27  76 W9G16     30.08F WCI  27
LA PORTE +     CLOUDY    36  30  79 W8        30.08F
MICHIGAN CITY+ CLOUDY    34  27  75 W9G16     30.08F WCI  26
MONTICELLO +   CLOUDY    33  32  96 W8        30.10F WCI  26
RENSSELAER +   CLOUDY    34  32  93 NW10G16   30.11R WCI  26
VALPARAISO     CLOUDY    33  27  78 W9        30.09S WCI  25

$$

LMZ046-743>745-280300-
SOUTHERN LAKE MICHIGAN

STATION/POSITION TIME  TEMP WIND        PRES
                       AIR  DIR/SP/G
                 (UTC) (F)  (DEG/KT/KT) (MB)
MICHIGAN CITY    0200   35  260/ 20/ 22   N/A

$$

INZ004-005-014>016-021>024-280300-
NORTH CENTRAL INDIANA

CITY           SKY/WX    TMP DP  RH WIND       PRES   REMARKS
GOSHEN         CLOUDY    36  32  85 W10       30.06R
LOGANSPORT +   LGT SNOW  32  30  93 W7        30.10F WCI  26
PERU/GRISSOM   LGTSLEET  34  34 100 W9        30.08S WCI  26
ROCHESTER +    LGT SNOW  36  34  93 W3        30.07F
SOUTH BEND     CLOUDY    36  30  79 W10       30.08R
WARSAW +       LGT RAIN  34  34 100 W8        30.07R WCI  27

$$

INZ006>009-017-018-025>027-280300-
NORTHEAST INDIANA

CITY           SKY/WX    TMP DP  RH WIND       PRES   REMARKS
ANGOLA *+      CLOUDY    36  32  87 W12       30.04R
AUBURN +       RAIN      37  32  81 W10G16    30.07R
FORT WAYNE     LGT RAIN  37  34  89 W16       30.08R
HUNTINGTON +   LGT RAIN  35  31  84 W9G18     30.08R WCI  28

$$

INZ028-029-035-036-043>045-051>053-280300-
WEST CENTRAL INDIANA

CITY           SKY/WX    TMP DP  RH WIND       PRES   REMARKS
GREENCASTLE +  LGT RAIN  36  32  87 W5        30.11F
LAFAYETTE      MIX PCPN  33  32  96 W7        30.12R WCI  27
TERRE HAUTE    LGT RAIN  37  34  89 W10       30.16R

$$

INZ030>032-037>040-046>048-054>057-064-065-280300-
CENTRAL INDIANA

CITY           SKY/WX    TMP DP  RH WIND       PRES   REMARKS
CP ATTERBURY + RAIN      43  41  93 MISG      30.10R
COLUMBUS       LGT RAIN  45  45 100 SW5       30.09R FOG
FRANKFORT +    LGT RAIN  35  35 100 W13       30.11F WCI  26
INDIANAPOLIS   LGT RAIN  37  36  96 NW10      30.09F FOG
-EAGLE CREEK   LGT RAIN  37  37 100 NW7       30.09F FOG
KOKOMO *+      CLOUDY    36  30  80 NW13      30.10R
MARION +       LGT RAIN  37  36  94 NW12      30.09R
MT COMFORT *+  CLOUDY    39  39 100 NW13      30.10R
SHELBYVILLE    LGT RAIN  43  40  89 NW12      30.08R FOG
ZIONSVILLE +   LGT RAIN  37  34  87 NW9       30.10F

$$

INZ033-034-041-042-049-050-058-059-280300-
EAST CENTRAL INDIANA

CITY           SKY/WX    TMP DP  RH WIND       PRES   REMARKS
MUNCIE         LGT RAIN  41  37  86 W13G24    30.08R FOG

$$

INZ060-061-067>069-081>083-085>088-280300-
SOUTHWEST INDIANA

CITY           SKY/WX    TMP DP  RH WIND       PRES   REMARKS
EVANSVILLE     HVY RAIN  45  41  86 NW9G20    30.15R FOG
HUNTINGBURG *+ CLOUDY    46  45  93 W5        30.11S
WASHINGTON +   RAIN      41  38  87 NW12      30.14R

$$

INZ062-063-066-070>080-084-089>092-280300-
SOUTH CENTRAL AND SOUTHEAST INDIANA

CITY           SKY/WX    TMP DP  RH WIND       PRES   REMARKS
BLOOMINGTON    LGT RAIN  42  40  92 NW5       30.11S FOG

$$




USA.gov is the U.S. government's official web portal to all federal, state and local government web resources and services.